Tracking 32579 objects as of 16-Dec-2025
HD Live streaming from Space Station
objects crossing your sky now

IRIDIUM 33 DEB

Track IRIDIUM 33 DEB now!
10-day predictions


NORAD ID: 34350
Int'l Code: 1997-051ES
Perigee: 731.4 km
Apogee: 764.3 km
Inclination: 86.3 °
Period: 99.6 minutes
Semi major axis: 7118 km
RCS: 0.064 m2 (small)
Launch date: September 14, 1997
Source: United States (US)
Launch site: TYURATAM MISSILE AND SPACE COMPLEX (TTMTR)

Note: This is SATELLITE DEBRIS
Your satellite tracking list
Your tracking list is empty




NASA's NSSDC Master Catalog

Two Line Element Set (TLE):
1 34350U 97051ES  25349.80864337  .00001101  00000-0  30646-3 0  9994
2 34350  86.3274   1.4756 0023095 125.7111  53.7358 14.45393781883372
Source of the keplerian elements: AFSPC